Miami, FL

11:38 AM EST on December 10, 2019 (GMT -0500)
Miami International

Weather History for KMIA - October, 2019

Change the Weather History Date:

Thursday, October 3, 2019

  Actual Average Record
Temperature  
Mean Temperature 83 °F 82 °F  
Max Temperature 88 °F 88 °F 94 °F (2014)
Min Temperature 77 °F 76 °F 65 °F (1938)
Degree Days  
Heating Degree Days 0 0  
Month to date heating degree days 0 0  
Since 1 July heating degree days 0 0  
Cooling Degree Days 18 17  
Month to date cooling degree days 55 51  
Year to date cooling degree days 4146 3663  
Growing Degree Days 32 (Base 50)    
Moisture  
Dew Point 72 °F    
Average Humidity 72    
Maximum Humidity 85    
Minimum Humidity 59    
Precipitation  
Precipitation 0.03 in 0.28 in 12.56 in (2000)
Month to date precipitation 0.50 0.84  
Year to date precipitation 55.67 51.10  
Snow  
Snow 0.00 in - - ()
Month to date snowfall 0.0  
Since 1 July snowfall 0.0  
Since 1 September snowfall 0.0  
Snow Depth 0.00 in    
Sea Level Pressure  
Sea Level Pressure 29.95 in    
Wind  
Wind Speed 10 mph (ENE)    
Max Wind Speed 18 mph    
Max Gust Speed 23 mph    
Visibility 10 miles    
Events Rain    
T = Trace of Precipitation, MM = Missing Value Source: NWS Daily Summary

Daily Weather History Graph

Daily Weather History Graph

Search for Another Location

Airport or City:

Astronomy

Oct. 03, 2019 Rise Set
Actual Time 7:14 AM EDT 7:05 PM EDT
Civil Twilight 6:51 AM EDT 7:28 PM EDT
Nautical Twilight 6:24 AM EDT 7:55 PM EDT
Astronomical Twilight 5:57 AM EDT 8:22 PM EDT
Moon 12:15 PM EDT (10/3) 11:13 PM EDT (10/3)
Length of Visible Light 12h 37m
Length of Day
11h 51m
Waxing Crescent, 29% of the Moon is Illuminated
Oct 3
Waxing Crescent
Oct 5
First Quarter
Oct 13
Full
Oct 21
Last Quarter
Oct 27
New

Hourly Weather History & Observations

Time (EDT) Temp. Heat Index Dew Point Humidity Pressure Visibility Wind Dir Wind Speed Gust Speed Precip Events Conditions
12:53 AM 80.1 °F 84.2 °F 73.0 °F 79% 29.93 in 10.0 mi NNE 3.5 mph - N/A   Partly Cloudy
1:53 AM 79.0 °F - 73.0 °F 82% 29.92 in 10.0 mi NE 4.6 mph - N/A   Partly Cloudy
2:53 AM 79.0 °F - 73.0 °F 82% 29.91 in 10.0 mi NE 4.6 mph - N/A   Partly Cloudy
3:53 AM 79.0 °F - 73.0 °F 82% 29.90 in 10.0 mi NNE 5.8 mph - N/A   Scattered Clouds
4:53 AM 79.0 °F - 73.0 °F 82% 29.91 in 10.0 mi NNE 6.9 mph - N/A   Partly Cloudy
5:53 AM 78.1 °F - 72.0 °F 81% 29.92 in 10.0 mi NNE 4.6 mph - N/A   Partly Cloudy
6:53 AM 80.1 °F 83.8 °F 72.0 °F 76% 29.92 in 10.0 mi NNE 3.5 mph - N/A   Partly Cloudy
7:31 AM 80.1 °F 84.2 °F 73.0 °F 79% 29.93 in 10.0 mi NNE 4.6 mph - N/A   Mostly Cloudy
7:53 AM 80.1 °F 84.2 °F 73.0 °F 79% 29.94 in 10.0 mi NE 4.6 mph - N/A   Mostly Cloudy
8:53 AM 82.9 °F 88.0 °F 72.0 °F 69% 29.96 in 10.0 mi East 13.8 mph - N/A   Partly Cloudy
9:50 AM 84.2 °F 89.6 °F 71.6 °F 66% 29.97 in 10.0 mi East 13.8 mph - N/A   Mostly Cloudy
9:53 AM 84.9 °F 90.7 °F 72.0 °F 65% 29.97 in 10.0 mi East 13.8 mph - N/A   Mostly Cloudy
10:53 AM 84.9 °F 90.7 °F 72.0 °F 65% 29.98 in 10.0 mi East 15.0 mph - N/A   Mostly Cloudy
11:53 AM 84.9 °F 90.1 °F 71.1 °F 63% 29.98 in 10.0 mi East 16.1 mph - 0.00 in   Mostly Cloudy
12:50 PM 84.2 °F 89.6 °F 71.6 °F 66% 29.97 in 10.0 mi East 16.1 mph 23.0 mph 0.00 in   Mostly Cloudy
12:53 PM 84.0 °F 89.0 °F 71.1 °F 65% 29.97 in 10.0 mi East 17.3 mph 23.0 mph 0.00 in   Mostly Cloudy
1:53 PM 88.0 °F 93.8 °F 71.1 °F 57% 29.96 in 10.0 mi East 15.0 mph - N/A   Mostly Cloudy
2:37 PM 84.0 °F 89.6 °F 72.0 °F 67% 29.96 in 6.0 mi ENE 18.4 mph 23.0 mph 0.00 in Rain Light Rain
2:50 PM 82.4 °F 88.2 °F 73.4 °F 74% 29.95 in 10.0 mi East 12.7 mph - 0.01 in Rain Light Rain
2:53 PM 82.0 °F 87.9 °F 73.9 °F 76% 29.95 in 8.0 mi East 11.5 mph - 0.01 in Rain Rain
3:53 PM 86.0 °F 91.5 °F 71.1 °F 61% 29.94 in 10.0 mi East 13.8 mph - 0.02 in   Scattered Clouds
4:53 PM 84.9 °F 89.4 °F 70.0 °F 61% 29.93 in 10.0 mi ENE 12.7 mph - N/A   Scattered Clouds
5:53 PM 82.9 °F 86.5 °F 69.1 °F 63% 29.94 in 10.0 mi East 13.8 mph - N/A   Scattered Clouds
6:53 PM 82.9 °F 87.0 °F 70.0 °F 65% 29.95 in 10.0 mi East 13.8 mph - N/A   Scattered Clouds
7:53 PM 82.0 °F 85.9 °F 70.0 °F 67% 29.96 in 10.0 mi ENE 10.4 mph - N/A   Partly Cloudy
8:53 PM 82.0 °F 85.5 °F 69.1 °F 65% 29.97 in 10.0 mi ENE 9.2 mph - N/A   Partly Cloudy
9:53 PM 81.0 °F 84.1 °F 69.1 °F 67% 29.98 in 10.0 mi East 10.4 mph - N/A   Partly Cloudy
10:53 PM 81.0 °F 84.9 °F 71.1 °F 72% 29.99 in 10.0 mi ENE 8.1 mph - N/A   Partly Cloudy
11:53 PM 81.0 °F 84.4 °F 70.0 °F 69% 29.99 in 10.0 mi East 6.9 mph - N/A   Partly Cloudy